FW7230 Weather Reports


time (UTC)temp
C
wind
direction
speed
KPH
gust
KPH
rain 1hr
cm
rain 24hr
cm
rain mn
cm
humidity
%
barometer
mb
20260906172327 34 131 4.8 9.7 0.00 0.00 0.00 63 1016.7
20260906171333 35 167 6.4 17.7 0.00 0.00 0.00 63 1016.7
20260906170331 34 123 3.2 9.7 0.00 0.00 0.00 66 1016.9
20260906165315 33 95 6.4 11.3 0.00 0.00 0.00 69 1017.0
20260906164321 32 114 4.8 9.7 0.00 0.00 0.00 71 1017.0
20260906163338 32 105 6.4 9.7 0.00 0.00 0.00 72 1017.1
20260906162322 32 105 6.4 14.5 0.00 0.00 0.00 73 1017.1
20260906161320 31 47 6.4 11.3 0.00 0.00 0.00 74 1017.0
20260906160338 32 70 11.3 16.1 0.00 0.00 0.00 73 1017.1
20260906155318 31 75 4.8 9.7 0.00 0.00 0.00 77 1017.1
20260906154324 31 147 6.4 12.9 0.00 0.00 0.00 77 1017.0
20260906153339 30 60 8.0 14.5 0.00 0.00 0.00 79 1017.0
20260906152320 30 173 3.2 14.5 0.00 0.00 0.00 82 1017.0
20260906151408 28 193 4.8 14.5 0.00 0.00 0.00 86 1017.0
20260906150320 28 79 8.0 12.9 0.00 0.00 0.00 86 1017.0
20260906145326 28 75 6.4 12.9 0.00 0.00 0.00 87 1017.0
20260906144321 27 113 6.4 11.3 0.00 0.00 0.00 87 1017.1
20260906143338 27 88 6.4 12.9 0.00 0.00 0.00 89 1017.2
20260906142319 27 53 9.7 17.7 0.00 0.00 0.00 90 1017.2
20260906141326 26 86 6.4 16.1 0.00 0.00 0.00 92 1017.4
20260906140327 26 72 9.7 14.5 0.00 0.00 0.00 91 1017.4
20260906135331 26 56 4.8 11.3 0.00 0.00 0.00 91 1017.4
20260906134408 26 64 8.0 12.9 0.00 0.00 0.00 92 1017.4
20260906133318 26 60 3.2 12.9 0.00 0.00 0.00 94 1017.2
20260906132321 26 64 1.6 9.7 0.00 0.00 0.00 94 1017.1
20260906131326 25 74 3.2 9.7 0.00 0.00 0.00 94 1017.1
20260906130325 25 84 4.8 8.0 0.00 0.00 0.00 95 1017.1
20260906125909 25 113 3.2 6.4 0.00 0.00 0.00 95 1016.9
20260906124322 25 85 4.8 8.0 0.00 0.00 0.00 96 1016.8
20260906123340 24 55 3.2 6.4 0.00 0.00 0.00 96 1016.8
20260906122324 24 18 3.2 8.0 0.00 0.00 0.00 96 1016.7
20260906121315 24 23 3.2 4.8 0.00 0.00 0.00 95 1016.7
20260906120315 24 11 3.2 6.4 0.00 0.00 0.00 95 1016.5
20260906115409 24 30 3.2 8.0 0.00 0.00 0.00 95 1016.5
20260906114318 24 54 6.4 8.0 0.00 0.00 0.00 95 1016.3
20260906113337 24 60 3.2 6.4 0.00 0.00 0.00 94 1016.2
20260906112317 24 46 4.8 9.7 0.00 0.00 0.00 94 1016.1
20260906111344 25 63 3.2 6.4 0.00 0.00 0.00 94 1016.1
20260906110337 25 104 1.6 9.7 0.00 0.00 0.00 94 1015.8
20260906105316 25 82 4.8 8.0 0.00 0.00 0.00 94 1015.7
20260906104325 25 86 3.2 8.0 0.00 0.00 0.00 93 1015.5
20260906103323 25 25 4.8 9.7 0.00 0.00 0.00 93 1015.4
20260906102332 25 43 4.8 6.4 0.00 0.00 0.00 93 1015.4
20260906101320 25 73 3.2 6.4 0.00 0.00 0.00 92 1015.4
20260906100338 25 66 4.8 8.0 0.00 0.00 0.00 93 1015.4
20260906095319 25 34 3.2 4.8 0.00 0.00 0.00 92 1015.5
20260906094328 25 63 1.6 8.0 0.00 0.00 0.00 92 1015.5
20260906093410 25 82 3.2 9.7 0.00 0.00 0.00 91 1015.4
20260906091332 25 43 3.2 6.4 0.00 0.00 0.00 91 1015.4
20260906090328 25 68 3.2 6.4 0.00 0.00 0.00 91 1015.2
20260906085317 25 67 3.2 6.4 0.00 0.00 0.00 91 1015.2
20260906084342 25 94 3.2 6.4 0.00 0.00 0.00 91 1015.2
20260906083339 25 87 3.2 8.0 0.00 0.00 0.00 91 1015.1
20260906082340 25 89 3.2 8.0 0.00 0.00 0.00 91 1015.0
20260906081323 25 74 1.6 8.0 0.00 0.00 0.00 91 1015.0
20260906080335 25 91 3.2 4.8 0.00 0.00 0.00 91 1015.0
20260906075640 25 46 3.2 6.4 0.00 0.00 0.00 91 1015.1
20260906074337 25 27 4.8 6.4 0.00 0.00 0.00 91 1015.1
20260906073316 25 37 3.2 4.8 0.00 0.00 0.00 90 1015.1
20260906072322 25 62 3.2 6.4 0.00 0.00 0.00 90 1015.1
20260906071328 25 41 4.8 6.4 0.00 0.00 0.00 90 1015.3
20260906070325 25 11 4.8 6.4 0.00 0.00 0.00 90 1015.3
20260906065328 25 20 3.2 6.4 0.00 0.00 0.00 89 1015.3
20260906064316 25 25 3.2 3.2 0.00 0.00 0.00 89 1015.2
20260906063334 25 16 3.2 4.8 0.00 0.00 0.00 89 1015.4
20260906062313 25 10 3.2 4.8 0.00 0.00 0.00 88 1015.4
20260906061340 25 15 3.2 4.8 0.00 0.00 0.00 88 1015.6
20260906060338 25 13 1.6 3.2 0.00 0.00 0.00 88 1015.7
20260906055344 25 16 3.2 3.2 0.00 0.00 0.00 87 1015.7
20260906055141 25 16 1.6 3.2 0.00 0.00 0.00 87 1015.8
20260906053358 25 11 1.6 4.8 0.00 0.00 0.00 86 1015.7
20260906052339 25 18 3.2 4.8 0.00 0.00 0.00 86 1015.7
20260906051345 26 12 3.2 3.2 0.00 0.00 0.00 85 1015.6
20260906050341 26 11 1.6 3.2 0.00 0.00 0.00 85 1015.5
20260906045337 26 16 1.6 3.2 0.00 0.00 0.00 84 1015.4
20260906044405 26 13 3.2 3.2 0.00 0.00 0.00 84 1015.4
20260906043403 26 9 3.2 3.2 0.00 0.00 0.00 84 1015.4
20260906042351 26 14 3.2 4.8 0.00 0.00 0.00 84 1015.4
20260906041339 26 18 3.2 3.2 0.00 0.00 0.00 83 1015.4
20260906040338 27 16 1.6 3.2 0.00 0.00 0.00 83 1015.3
20260906035345 27 16 1.6 3.2 0.00 0.00 0.00 82 1015.2
20260906034332 27 20 3.2 3.2 0.00 0.00 0.00 82 1015.0
20260906033349 27 23 1.6 3.2 0.00 0.00 0.00 82 1014.8
20260906032336 27 40 1.6 3.2 0.00 0.00 0.00 82 1014.8
20260906031911 27 110 1.6 3.2 0.00 0.00 0.00 82 1014.9
20260906030342 27 30 1.6 3.2 0.00 0.00 0.00 81 1014.8
20260906025346 27 31 1.6 3.2 0.00 0.00 0.00 81 1014.7
20260906024334 28 23 1.6 3.2 0.00 0.00 0.00 80 1014.6
20260906023332 28 23 3.2 4.8 0.00 0.00 0.00 79 1014.4
20260906022338 28 50 1.6 4.8 0.00 0.00 0.00 78 1014.3
20260906021345 28 46 1.6 4.8 0.00 0.00 0.00 77 1014.1
20260906020344 28 26 1.6 4.8 0.00 0.00 0.00 76 1013.9
20260906015333 28 55 3.2 4.8 0.00 0.00 0.00 75 1013.7
20260906014338 29 101 1.6 4.8 0.00 0.00 0.00 74 1013.5
20260906013335 29 49 3.2 4.8 0.00 0.00 0.00 73 1013.4
20260906012340 29 105 1.6 3.2 0.00 0.00 0.00 72 1013.3
20260906011348 30 33 1.6 3.2 0.00 0.00 0.00 70 1013.4
20260906010345 30 70 1.6 3.2 0.00 0.00 0.00 68 1013.3
20260906005332 31 76 1.6 3.2 0.00 0.00 0.00 65 1013.2
20260906004338 32 89 1.6 4.8 0.00 0.00 0.00 63 1013.2
20260906003339 32 94 3.2 6.4 0.00 0.00 0.00 60 1013.1
20260906002346 33 98 3.2 4.8 0.00 0.00 0.00 58 1013.3
20260906002141 33 83 3.2 6.4 0.00 0.00 0.00 57 1013.2
20260906000333 34 96 3.2 8.0 0.00 0.00 0.00 56 1013.2
20260905235643 34 108 4.8 9.7 0.00 0.00 0.00 55 1013.3
20260905234339 35 103 4.8 8.0 0.00 0.00 0.00 54 1013.3
20260905233353 36 82 6.4 11.3 0.00 0.00 0.00 52 1013.2
20260905231338 36 101 4.8 9.7 0.00 0.00 0.00 51 1013.1
20260905230338 36 97 4.8 11.3 0.00 0.00 0.00 50 1013.0
20260905225344 36 63 8.0 9.7 0.00 0.00 0.00 49 1013.0
20260905224332 36 75 4.8 9.7 0.00 0.00 0.00 50 1012.9
20260905223334 36 98 4.8 16.1 0.00 0.00 0.00 50 1012.9
20260905222338 36 76 6.4 11.3 0.00 0.00 0.00 50 1012.9
20260905221402 37 102 8.0 12.9 0.00 0.00 0.00 46 1012.9
20260905214336 37 77 8.0 14.5 0.00 0.00 0.00 46 1012.8
20260905213412 37 52 4.8 9.7 0.00 0.00 0.00 47 1013.0
20260905212332 37 75 6.4 12.9 0.00 0.00 0.00 45 1013.2
20260905211338 37 41 6.4 14.5 0.00 0.00 0.00 45 1013.3
20260905210356 37 121 6.4 12.9 0.00 0.00 0.00 44 1013.3
20260905205336 38 49 3.2 8.0 0.00 0.00 0.00 45 1013.4
20260905204403 38 156 3.2 6.4 0.00 0.00 0.00 43 1013.8
20260905202349 39 242 1.6 3.2 0.00 0.00 0.00 41 1014.1
20260905201337 38 78 3.2 4.8 0.00 0.00 0.00 42 1014.3
20260905200352 38 222 0.0 3.2 0.00 0.00 0.00 42 1014.3
20260905195332 39 184 3.2 4.8 0.00 0.00 0.00 42 1014.3
20260905194337 39 132 1.6 6.4 0.00 0.00 0.00 44 1014.5
20260905193910 40 176 4.8 9.7 0.00 0.00 0.00 42 1014.7
20260905191336 39 184 3.2 9.7 0.00 0.00 0.00 43 1014.9
20260905190354 39 105 3.2 6.4 0.00 0.00 0.00 41 1015.0
20260905185414 38 125 1.6 4.8 0.00 0.00 0.00 42 1015.2
20260905184343 38 255 3.2 6.4 0.00 0.00 0.00 42 1015.2
20260905183341 38 125 3.2 6.4 0.00 0.00 0.00 45 1015.3
20260905182349 38 169 3.2 4.8 0.00 0.00 0.00 48 1015.3
20260905181334 37 173 3.2 4.8 0.00 0.00 0.00 49 1015.4
20260905180332 38 214 1.6 3.2 0.00 0.00 0.00 47 1015.6
20260905175341 38 193 1.6 4.8 0.00 0.00 0.00 48 1015.7
20260905174407 38 201 1.6 4.8 0.00 0.00 0.00 45 1015.8
20260905173341 38 208 3.2 4.8 0.00 0.00 0.00 47 1015.8